Location: Amsterdam
(30.7274°N, 84.4357°W)
Time: 21:08:21
(UTC+00:00)

Injun/Solrad 3 - Pass Details

Date: 27 February 2026
Orbit: 872 x 984 km, 66.8° (Epoch: 6 March)

Event Time Altitude Azimuth Distance (km) Brightness Sun altitude
Rises 00:57:05 0° 326° (NW) 3,616 11.5 -18.6°
Reaches altitude 10° 00:59:43 10° 320° (NW) 2,684 10.9 -19.1°
Maximum altitude 01:05:35 43° 251° (WSW) 1,340 9.2 -20.4°
Drops below altitude 10° 01:11:32 10° 182° (S) 2,721 10.3 -21.7°
Sets 01:14:14 0° 175° (S) 3,670 10.9 -22.2°
